Weather History for Killeen/Ft Hood, TX

Change the Weather History Date:

Saturday, February 1, 2014

  Actual Average Record
Temperature  
Mean Temperature 62 °F -  
Max Temperature 75 °F 57 °F 82 °F (2012)
Min Temperature 48 °F 41 °F 18 °F (2011)
Degree Days  
Heating Degree Days 2    
Growing Degree Days 12 (Base 50)    
Moisture  
Dew Point 53 °F    
Average Humidity 65    
Maximum Humidity 78    
Minimum Humidity 51    
Precipitation  
Precipitation 0.00 in - - ()
Sea Level Pressure  
Sea Level Pressure 29.88 in    
Wind  
Wind Speed 13 mph (South)    
Max Wind Speed 20 mph    
Max Gust Speed 31 mph    
Visibility 10 miles    
Events      
Averages and records for this station are not official NWS values.
T = Trace of Precipitation, MM = Missing Value Source: NWS Daily Summary

Daily Weather History Graph

Daily Weather History Graph

Search for Another Location

Airport:

Trip Planner

Search our weather history database for the weather conditions in past years. The results will help you decide how hot, cold, wet, or windy it might be!

Date:

Astronomy

Feb. 01, 2014 Rise Set
Actual Time 7:22 AM CST 6:06 PM CST
Civil Twilight 6:57 AM CST 6:31 PM CST
Nautical Twilight 6:28 AM CST 7:00 PM CST
Astronomical Twilight 6:00 AM CST 7:29 PM CST
Moon 8:24 AM CST (2/1) 8:29 PM CST (2/1)
Length of Visible Light 11h 34m
Length of Day
10h 43m
Waxing Crescent, 5% of the Moon is Illuminated
Feb 1
Waxing Crescent
Feb 6
First Quarter
Feb 14
Full
Feb 22
Last Quarter
Mar 1
New

Hourly Weather History & Observations

Time (CST) Temp. Dew Point Humidity Pressure Visibility Wind Dir Wind Speed Gust Speed Precip Events Conditions
12:56 AM 66.9 °F 57.9 °F 73% 29.85 in 10.0 mi SSE 18.4 mph 31.1 mph N/A   Overcast
1:56 AM 66.9 °F 57.9 °F 73% 29.86 in 10.0 mi South 19.6 mph 25.3 mph N/A   Overcast
2:56 AM 66.9 °F 57.9 °F 73% 29.85 in 10.0 mi SSE 12.7 mph - N/A   Overcast
3:29 AM 66.2 °F 57.2 °F 73% 29.76 in 10.0 mi SSE 15.0 mph 24.2 mph N/A   Overcast
3:56 AM 66.9 °F 59.0 °F 76% 29.83 in 10.0 mi SSE 13.8 mph - N/A   Overcast
4:04 AM 66.2 °F 59.0 °F 78% 29.75 in 10.0 mi SSE 13.8 mph 21.9 mph N/A   Overcast
4:11 AM 66.2 °F 59.0 °F 78% 29.75 in 10.0 mi SSE 15.0 mph 20.7 mph N/A   Overcast
4:56 AM 66.0 °F 59.0 °F 78% 29.82 in 10.0 mi SSE 15.0 mph 21.9 mph N/A   Overcast
5:56 AM 66.9 °F 59.0 °F 76% 29.82 in 10.0 mi SSE 13.8 mph 25.3 mph N/A   Overcast
6:56 AM 66.9 °F 59.0 °F 76% 29.86 in 10.0 mi South 17.3 mph 21.9 mph N/A   Overcast
7:56 AM 68.0 °F 59.0 °F 73% 29.87 in 10.0 mi South 13.8 mph - N/A   Overcast
8:03 AM 68.0 °F 59.0 °F 73% 29.80 in 10.0 mi South 16.1 mph 20.7 mph N/A   Overcast
8:42 AM 69.8 °F 59.0 °F 68% 29.82 in 10.0 mi South 6.9 mph - N/A   Overcast
8:56 AM 69.1 °F 59.0 °F 70% 29.91 in 10.0 mi South 8.1 mph - N/A   Overcast
9:40 AM 69.8 °F 59.0 °F 68% 29.85 in 10.0 mi SSW 8.1 mph 18.4 mph N/A   Overcast
9:56 AM 69.1 °F 59.0 °F 70% 29.93 in 10.0 mi SSW 8.1 mph - N/A   Overcast
10:56 AM 70.0 °F 57.9 °F 65% 29.95 in 10.0 mi SW 5.8 mph - N/A   Overcast
11:56 AM 72.0 °F 57.9 °F 61% 29.93 in 10.0 mi SSW 5.8 mph - N/A   Overcast
12:56 PM 72.0 °F 57.9 °F 61% 29.90 in 10.0 mi SSW 6.9 mph - N/A   Overcast
1:56 PM 73.9 °F 57.9 °F 57% 29.86 in 10.0 mi South 4.6 mph - N/A   Overcast
2:56 PM 75.9 °F 57.9 °F 54% 29.85 in 10.0 mi SSW 3.5 mph - N/A   Overcast
3:56 PM 71.1 °F 52.0 °F 51% 29.87 in 10.0 mi North 9.2 mph - N/A   Overcast
4:56 PM 68.0 °F 51.1 °F 55% 29.88 in 10.0 mi North 6.9 mph - N/A   Overcast
5:56 PM 64.0 °F 48.0 °F 56% 29.90 in 10.0 mi NNE 11.5 mph - N/A   Overcast
6:56 PM 63.0 °F 45.0 °F 52% 29.93 in 10.0 mi North 10.4 mph - N/A   Overcast
7:21 PM 62.6 °F 44.6 °F 52% 29.87 in 10.0 mi North 11.5 mph 19.6 mph N/A   Overcast
7:56 PM 57.0 °F 39.9 °F 53% 29.97 in 10.0 mi North 9.2 mph 20.7 mph N/A   Mostly Cloudy
8:56 PM 53.1 °F 37.9 °F 57% 30.00 in 10.0 mi North 15.0 mph 23.0 mph N/A   Overcast
9:56 PM 51.1 °F 37.9 °F 61% 30.02 in 10.0 mi North 8.1 mph 19.6 mph N/A   Overcast
10:56 PM 50.0 °F 36.0 °F 59% 30.03 in 10.0 mi North 10.4 mph 19.6 mph N/A   Overcast
11:56 PM 48.9 °F 34.0 °F 56% 30.05 in 10.0 mi North 12.7 mph 21.9 mph N/A   Overcast